This is the latest recevied weather packets stored in our database for station/object EA7JCM-13. If no packets are shown the sender has not sent any weather packets the latest 10 day(s).
| Time | Temp. | Humidity | Pressure | Rain* | Wind** | Luminosity | Snow |
|---|---|---|---|---|---|---|---|
| 1777200303 | 20.56° C | 46% | 1013.5 hPa | 0 mm | - | - | - |
| 1777200003 | 20.56° C | 47% | 1013.5 hPa | 0 mm | - | - | - |
| 1777199702 | 20.56° C | 47% | 1013.5 hPa | 0 mm | - | - | - |
| 1777199402 | 20.56° C | 47% | 1013.6 hPa | 0 mm | - | - | - |
| 1777199103 | 20.56° C | 49% | 1013.9 hPa | 0 mm | - | - | - |
| 1777198803 | 20.56° C | 48% | 1013.9 hPa | 0 mm | - | - | - |
| 1777198503 | 20.56° C | 47% | 1013.7 hPa | 0 mm | - | - | - |
| 1777198203 | 20.56° C | 51% | 1013.9 hPa | 0 mm | - | - | - |
| 1777197903 | 20° C | 52% | 1013.9 hPa | 0 mm | - | - | - |
| 1777197603 | 20° C | 53% | 1013.9 hPa | 0 mm | - | - | - |
| 1777197303 | 20° C | 53% | 1013.8 hPa | 0 mm | - | - | - |
| 1777197003 | 20° C | 53% | 1013.8 hPa | 0 mm | - | - | - |
| 1777196703 | 20° C | 54% | 1013.9 hPa | 0 mm | - | - | - |
| 1777196403 | 19.44° C | 55% | 1013.9 hPa | 0 mm | - | - | - |
| 1777196103 | 19.44° C | 56% | 1013.8 hPa | 0 mm | - | - | - |
| 1777195803 | 18.89° C | 56% | 1013.9 hPa | 0 mm | - | - | - |
| 1777195503 | 18.89° C | 57% | 1014.2 hPa | 0 mm | - | - | - |
| 1777195204 | 18.89° C | 58% | 1013.8 hPa | 0 mm | - | - | - |
| 1777194902 | 18.89° C | 59% | 1014 hPa | 0 mm | - | - | - |
| 1777194603 | 18.89° C | 58% | 1014.1 hPa | 0 mm | - | - | - |
| 1777194303 | 18.89° C | 60% | 1013.9 hPa | 0 mm | - | - | - |
| 1777194003 | 18.89° C | 59% | 1014 hPa | 0 mm | - | - | - |
| 1777193704 | 18.89° C | 59% | 1013.9 hPa | 0 mm | - | - | - |
| 1777193402 | 18.89° C | 59% | 1014 hPa | 0 mm | - | - | - |
| 1777193103 | 18.33° C | 62% | 1013.8 hPa | 0 mm | - | - | - |
* Rain latest hour (hover to see other rain measurements)
** Current wind speed in m/s (hover to see current wind gust speed)